Skip Page Navigation
NASA JPL Caltech
NASA Logo - Jet Propulsion Laboratory + View the NASA Portal
+ Center for Near-Earth Object Studies
JPL Home Earth Solar System Stars & Galaxies Technology
JPL Solar System Dynamics
BODIES ORBITS EPHEMERIDES TOOLS PHYSICAL DATA DISCOVERY FAQ SITE MAP
JPL Small-Body Database Browser
Search: [ help ]  
78835 (2003 QH37)
Classification: Main-belt Asteroid          SPK-ID: 2078835
Ephemeris | Orbit Diagram | Orbital Elements | Mission Design | Physical Parameters | Discovery Circumstances | Close-Approach Data ]

[ show orbit diagram ]
Orbital Elements at Epoch 2459000.5 (2020-May-31.0) TDB
Reference: JPL 18 (heliocentric ecliptic J2000)
 Element Value Uncertainty (1-sigma)   Units 
e .1699064064700765 3.2323e-08  
a 2.238455811238278 8.0909e-09 au
q 1.858127828308722 7.0912e-08 au
i 2.251695567759379 4.7553e-06 deg
node 202.0008529559405 9.4385e-05 deg
peri 104.4684919232677 9.5633e-05 deg
M 15.78893482249962 1.4895e-05 deg
tp 2458946.849775165698
(2020-Apr-07.34977517)
5.0521e-05 TDB
period 1223.266873761839
3.35
6.6323e-06
1.816e-08
d
yr
n .294293917150649 1.5956e-09 deg/d
Q 2.618783794167833 9.4657e-09 au
  Orbit Determination Parameters
   # obs. used (total)      657  
   data-arc span      16220 days (44.41 yr)  
   first obs. used      1976-05-29  
   last obs. used      2020-10-25  
   planetary ephem.      DE431  
   SB-pert. ephem.      SB431-N16  
   condition code      0  
   norm. resid. RMS      .55675  
   source      ORB  
   producer      Otto Matic  
   solution date      2020-Nov-12 21:25:22  

Additional Information
 Earth MOID = .844805 au 
 Jupiter MOID = 2.61672 au 
 T_jup = 3.616 
[ show covariance matrix ]

Ephemeris | Orbit Diagram | Orbital Elements | Mission Design | Physical Parameters | Discovery Circumstances | Close-Approach Data ]

Physical Parameter Table
Parameter Symbol Value Units Sigma Reference Notes
absolute magnitude H 16.6   n/a MPO468743  

78835 (2003 QH37)          Discovered 2003-Aug-22 by LINEAR at Socorro
Reference: 20040415/Numbers.arcLast Updated: 2004-04-19

[ show close-approach data ]
Alternate Designations
 2003 QH37 = 1976 KX2 = 2000 VB5 
Ephemeris | Orbit Diagram | Orbital Elements | Mission Design | Physical Parameters | Discovery Circumstances | Close-Approach Data ]
ABOUT SSD CREDITS/AWARDS PRIVACY/COPYRIGHT GLOSSARY LINKS
FirstGov 2020-Dec-01 00:22 UT
(server date/time)  
NASA Home Page
Site Manager:   Ryan S. Park
Webmaster  Alan B. Chamberlin